Theta_e
310 309 308 308 309 308 311 311 312 311 311 312 311 311 310 309 309 304 303 302 301 300 298 297 297 297 297 298 299 300 303 305 310 312 312 314 314 315 319 320 321 322 323 324
310 310 309 309 309 310 310 312 312 311 310 312 311 311 310 309 307 305 304 302 301 299 297 296 295 295 295 296 296 297 299 301 303 305 307 308 307 306 306 307 311 314 316 318
311 313 311 311 311 312 312 312 312 313 311 310 312 311 312 306 305 305 303 301 300 298 296 295 294 293 294 295 295 295 296 297 298 301 304 305 304 305 305 304 306 303 306 310
310 310 312 312 314 313 315 311 312 312 311 313 311 312 311 309 306 304 302 299 298 296 295 295 294 293 292 293 294 295 294 296 296 297 297 296 295 294 295 296 298 300 302 303
314 313 312 313 313 311 314 310 311 311 310 311 310 310 309 307 308 305 301 299 297 296 295 294 293 292 291 291 292 292 292 292 293 294 295 295 294 293 294 294 295 296 297 298
310 308 309 310 309 310 309 310 309 308 309 312 311 311 312 309 309 304 301 299 297 296 294 294 293 292 291 290 290 290 289 288 289 289 289 289 288 287 288 287 287 288 291 293
312 310 310 309 310 309 308 311 315 314 312 315 312 312 312 306 306 304 301 298 296 295 294 293 292 291 290 288 288 288 288 287 287 286 286 286 286 285 285 285 285 285 285 285
316 318 310 308 310 311 309 312 314 314 314 313 310 313 311 302 301 300 299 297 296 295 295 293 292 292 290 289 287 287 287 287 287 286 286 285 285 284 284 284 284 284 284 284
314 316 309 309 310 311 312 314 312 313 299 309 312 310 305 302 300 298 297 297 295 295 294 293 292 292 291 290 288 287 287 286 286 286 285 285 285 285 284 284 284 284 284 284
313 316 312 310 310 309 311 311 315 311 311 311 311 312 312 304 301 299 298 297 295 293 292 292 291 290 290 289 288 287 287 286 286 286 285 285 285 285 285 285 285 284 284 284
312 314 313 311 312 312 311 311 312 312 309 309 307 309 306 305 302 300 298 297 294 293 292 290 290 290 289 288 288 287 287 286 286 286 285 285 285 285 285 284 284 283 283 283
312 313 310 313 309 307 309 310 310 310 309 308 310 311 305 304 300 299 297 296 294 293 290 290 289 289 289 288 288 287 287 287 286 286 286 285 285 285 284 283 283 282 282 282
312 311 303 306 307 310 310 310 309 309 306 305 310 309 302 301 300 298 298 295 294 292 289 290 289 289 289 288 287 287 287 287 287 286 286 286 285 285 284 283 282 281 281 281
311 309 308 313 304 307 306 305 304 306 303 303 308 305 303 301 301 300 299 296 293 292 290 288 287 287 288 288 288 288 288 288 288 287 287 287 286 285 284 283 281 280 280 280
309 313 307 306 307 306 306 306 303 305 303 303 301 299 300 299 297 296 294 294 296 294 288 286 286 286 287 288 288 288 288 288 288 287 287 286 285 284 283 281 280 280 279 278
304 302 303 299 301 303 303 303 302 302 302 301 302 302 300 295 294 293 290 291 296 292 290 287 286 287 287 288 288 288 287 287 287 286 285 284 284 283 280 279 278 277 276 275
303 298 296 299 296 295 292 295 298 298 297 297 296 295 291 294 293 291 290 289 288 287 287 286 285 287 288 288 287 287 286 286 285 284 283 281 279 278 277 276 275 274 274 273
298 297 295 291 286 289 293 292 293 294 294 293 293 288 289 292 291 288 287 287 287 287 287 286 287 287 287 287 286 286 285 283 282 280 278 277 276 275 274 273 272 271 270 270
297 296 290 292 286 291 293 293 293 293 292 289 290 288 291 289 287 287 287 286 287 286 287 288 288 287 286 286 285 283 282 281 279 277 275 274 272 271 271 270 269 268 268 267
296 295 295 281 286 289 290 292 290 290 289 284 285 287 288 286 285 286 286 287 287 288 288 288 287 287 285 283 281 280 278 276 275 273 272 271 271 270 268 268 267 266 266 265
287 289 297 293 285 285 288 288 290 288 290 282 284 287 286 286 287 287 286 286 287 288 288 287 286 285 282 280 278 276 274 273 272 271 271 270 269 268 268 267 266 265 264 264
290 289 288 284 288 289 288 288 290 290 288 288 288 288 287 288 287 286 286 285 286 286 286 285 283 281 279 277 276 274 273 271 270 270 269 268 268 267 266 265 265 264 263 262
289 290 286 289 288 290 288 290 290 288 288 289 288 287 287 287 287 286 286 285 285 286 285 283 281 278 276 275 274 272 271 270 269 268 267 267 267 266 265 264 264 263 262 262
288 287 288 287 288 289 289 290 288 288 288 288 287 287 286 287 286 286 285 284 284 285 282 281 278 275 274 272 271 270 270 269 268 267 267 267 265 265 264 264 263 262 262 262
288 287 285 287 288 287 287 287 287 287 287 287 286 286 287 286 286 284 284 283 284 282 279 278 276 274 272 270 270 269 268 268 267 266 266 265 264 264 263 263 263 263 263 264
288 290 289 289 290 289 289 288 288 288 288 286 286 286 284 284 285 284 283 284 282 279 277 274 273 272 270 269 268 268 267 266 265 264 264 264 263 263 262 262 262 264 265 266
Wind_Speed
0 4 7 12 11 4 4 4 5 4 8 3 7 4 11 9 2 8 7 8 9 10 11 17 23 28 30 33 33 32 31 29 25 21 16 16 19 16 11 7 4 4 7 10
4 6 14 3 5 7 5 4 6 6 6 1 7 8 11 6 4 5 10 8 8 7 8 16 21 28 32 33 35 34 32 29 27 24 20 14 12 18 20 19 17 13 10 6
8 7 5 6 5 5 5 6 5 8 4 2 2 7 6 4 9 12 10 9 8 7 7 7 17 24 30 33 34 36 35 33 29 25 19 17 15 18 19 21 17 19 14 11
5 7 5 3 3 5 5 6 6 5 3 4 1 5 6 4 6 7 7 7 6 7 6 9 13 21 27 27 30 32 33 34 33 29 29 29 27 23 21 20 19 17 16 15
6 2 4 6 8 8 8 3 3 0 2 1 3 2 6 7 4 5 6 7 6 5 6 7 14 19 21 24 27 28 30 31 30 31 31 30 30 26 26 26 24 21 19 19
6 2 3 6 2 4 3 3 5 4 3 2 6 7 4 3 3 7 6 7 6 5 6 11 14 17 19 20 25 26 27 29 29 29 28 29 28 28 29 30 31 31 29 27
3 5 3 2 3 2 4 5 3 3 1 6 3 3 6 5 3 13 15 9 7 6 6 6 10 13 17 20 22 24 25 27 27 28 28 27 27 27 28 28 28 29 31 31
5 3 9 5 6 7 6 8 5 7 4 5 4 5 3 4 6 12 10 9 8 7 5 5 8 11 14 16 18 20 21 22 23 24 24 23 24 24 24 25 25 25 25 26
6 5 2 2 3 6 4 3 1 4 2 3 4 1 2 3 5 6 8 7 7 7 6 6 8 9 11 12 13 16 16 17 17 17 16 18 19 20 22 23 24 24 23 24
5 2 4 2 3 3 4 6 2 2 1 5 4 5 5 8 9 7 8 8 8 8 7 6 11 11 10 10 10 11 11 12 12 12 14 15 17 19 20 21 23 24 25 26
4 2 1 3 5 8 2 3 2 3 5 5 2 6 3 8 12 14 10 9 9 9 8 6 12 12 12 11 9 8 8 8 8 8 10 12 14 18 19 20 21 22 22 23
3 4 4 6 2 4 1 6 6 4 5 3 3 8 1 7 11 8 9 9 8 5 7 9 15 16 14 12 10 8 6 4 4 5 7 9 11 16 21 23 22 22 25 25
7 2 2 6 4 1 4 3 4 5 3 5 4 6 0 3 4 7 7 7 7 7 7 7 12 14 14 13 11 9 6 3 2 4 8 11 14 19 24 27 26 26 28 30
6 5 7 11 5 4 3 4 3 4 3 3 9 5 8 7 7 6 7 8 8 9 8 7 8 15 16 15 12 11 8 5 2 5 10 14 17 20 25 30 31 32 32 34
4 6 3 3 4 3 4 8 8 8 6 8 15 9 15 5 6 7 7 4 5 7 8 9 8 15 17 15 13 11 9 7 7 9 12 14 18 23 28 30 32 34 36 37
1 2 3 3 1 5 6 13 6 10 13 10 15 19 12 8 2 2 5 5 6 7 7 8 9 14 17 18 18 14 10 7 5 7 10 14 20 26 27 29 32 36 39 38
5 6 3 6 3 3 7 9 15 13 9 8 11 13 1 5 6 6 7 5 6 5 6 7 10 20 24 23 17 12 9 6 7 9 13 17 19 21 24 30 36 37 38 38
5 5 2 3 3 2 5 3 4 9 9 5 2 3 6 5 4 6 6 5 7 7 7 7 12 15 18 15 14 11 8 7 7 10 13 15 17 22 28 30 32 34 33 32
2 4 2 4 4 7 12 6 7 7 8 7 7 3 6 4 3 4 5 6 6 6 11 13 14 14 14 16 13 10 7 7 10 12 11 14 20 23 25 29 31 31 32 32
4 1 5 3 6 10 6 2 4 4 5 6 7 8 6 6 3 6 6 5 9 14 14 16 15 15 17 14 10 7 5 7 8 9 14 20 21 23 26 28 30 30 30 30
3 1 13 10 3 8 8 5 2 5 8 4 6 7 7 6 8 5 7 6 13 18 17 16 19 20 17 12 8 5 4 5 7 13 16 18 20 23 24 26 28 30 32 28
8 8 4 2 3 8 8 5 7 6 3 5 6 6 11 12 7 8 8 7 14 14 13 18 20 18 13 10 6 4 4 7 11 13 15 18 19 20 22 25 29 30 30 26
2 7 6 10 7 3 8 7 13 5 6 6 7 7 12 11 9 10 10 9 14 17 20 22 20 16 11 8 6 5 6 10 11 13 16 18 19 19 21 23 28 29 25 23
4 4 4 4 5 5 9 12 5 8 8 8 8 10 9 11 11 11 8 8 11 18 22 21 16 13 10 8 6 7 8 10 12 14 16 19 19 22 22 22 25 24 24 21
5 5 4 4 5 5 9 9 9 10 9 9 9 11 13 11 11 10 8 8 15 17 18 19 17 14 11 8 6 7 8 10 11 14 16 18 20 21 23 22 23 24 25 24
7 9 5 7 17 10 11 8 8 9 12 13 12 11 11 12 13 9 8 15 15 18 18 15 12 10 8 7 7 7 8 9 9 12 16 18 20 21 21 21 24 26 23 24
Wind_Direction
147 109 204 210 203 184 185 189 226 269 263 211 257 264 277 260 91 130 118 92 78 63 48 42 46 51 55 58 55 50 50 50 53 56 51 46 53 50 49 36 2 334 304 276
61 214 230 186 166 219 252 255 252 268 260 241 282 279 272 359 38 132 124 104 93 72 44 39 38 46 50 54 55 56 53 50 52 55 56 64 67 53 49 48 50 42 27 336
175 217 186 181 212 185 216 198 221 231 317 266 329 300 287 50 80 81 73 88 87 91 79 45 41 45 53 54 55 55 56 54 55 57 64 70 63 46 37 30 26 24 23 23
232 259 187 174 215 163 264 207 207 221 125 228 102 273 292 159 113 80 79 71 74 76 57 52 48 51 54 54 61 63 59 58 56 56 59 59 56 47 37 31 29 27 25 23
236 224 160 220 228 163 230 162 166 201 188 50 279 322 256 117 159 134 118 112 98 87 82 63 58 64 64 62 63 63 62 61 60 60 60 62 60 53 46 39 33 29 26 24
232 294 188 200 77 154 142 83 49 49 89 302 229 179 272 195 223 140 123 117 119 110 92 83 75 68 61 64 65 65 65 63 63 61 60 61 59 55 49 44 39 33 31 28
226 216 219 164 114 36 105 80 312 329 358 231 173 132 242 306 288 156 147 139 131 127 105 91 78 72 66 61 63 65 63 62 60 61 60 56 56 55 53 48 40 32 27 24
175 275 170 181 201 186 183 161 171 222 207 241 331 243 289 9 61 109 127 139 146 142 135 122 114 95 82 75 70 69 67 65 59 58 56 51 48 46 44 39 35 31 24 18
174 264 107 173 166 145 200 180 203 100 33 31 218 74 102 103 91 123 146 150 158 155 154 156 126 110 102 89 79 73 70 67 63 59 56 50 42 34 29 24 20 17 10 6
218 212 201 188 113 60 141 163 81 13 193 248 279 260 201 197 184 188 181 180 182 178 177 167 153 138 126 115 105 94 85 77 69 61 50 42 33 25 18 11 8 3 359 354
149 137 203 105 201 177 135 204 194 162 158 186 234 256 229 175 182 196 200 197 192 195 186 168 162 153 148 145 142 128 110 93 77 59 47 36 26 16 9 4 360 354 351 346
174 149 184 193 328 327 227 194 172 170 244 232 182 256 30 164 187 185 202 203 204 186 176 172 169 169 170 166 160 155 147 113 65 39 18 6 360 359 360 356 351 346 339 337
180 170 23 349 350 24 220 200 136 102 82 223 197 257 335 158 154 210 207 218 209 187 181 175 176 182 181 179 177 174 173 153 61 357 345 343 344 346 347 345 340 336 333 330
132 170 178 230 186 150 197 177 153 143 138 213 233 291 247 214 218 232 250 232 210 196 185 185 186 190 189 190 194 200 202 208 259 322 326 330 333 334 333 331 331 331 330 326
162 202 166 201 144 183 217 235 170 198 204 210 263 228 257 261 212 236 227 233 201 191 189 194 195 199 200 204 213 220 232 250 275 305 315 321 323 322 320 320 322 322 321 319
2 207 126 286 200 206 245 256 191 220 244 243 252 268 270 286 183 169 213 213 209 205 205 209 213 208 212 221 227 224 226 227 258 285 296 305 308 309 314 317 318 316 315 314
157 135 109 256 38 62 310 237 226 237 215 221 232 243 210 259 240 223 219 200 202 196 201 210 212 217 224 229 226 209 206 222 251 277 297 307 310 313 314 313 312 314 314 314
141 110 84 209 36 270 248 249 249 232 251 200 229 225 209 228 235 192 200 194 223 223 224 223 225 232 235 213 189 186 192 224 271 302 310 311 312 313 314 315 315 314 313 309
181 134 147 167 207 311 288 233 180 180 263 184 197 230 224 216 79 282 229 216 218 209 220 226 233 221 194 183 182 190 221 266 297 312 317 310 314 315 316 314 315 312 309 307
178 280 181 128 174 211 244 211 131 112 286 216 169 212 195 139 170 242 207 207 229 234 238 226 215 188 182 179 190 215 254 295 312 311 310 314 318 318 315 315 313 311 306 299
98 36 211 220 227 284 241 220 112 119 249 197 183 216 168 188 209 202 194 238 246 249 244 228 200 190 184 186 201 220 263 305 304 305 311 316 317 315 314 314 316 313 307 300
163 166 193 103 173 267 177 84 179 202 190 181 202 203 194 213 221 223 234 239 248 233 215 198 187 184 186 198 221 246 294 294 303 310 313 315 316 315 316 316 317 315 307 296
245 193 182 188 204 235 193 199 218 161 179 206 196 209 203 212 227 226 235 234 235 231 209 201 193 184 193 219 250 267 287 302 308 312 315 317 318 321 321 316 315 308 300 295
252 163 212 97 221 226 208 236 224 196 208 212 208 210 200 219 232 234 230 236 227 222 195 191 180 185 197 220 247 287 299 301 307 312 319 323 322 322 321 317 310 296 292 295
200 147 167 261 284 248 251 236 237 240 221 228 227 224 232 215 236 225 235 233 233 205 191 191 191 196 201 215 252 288 292 296 306 312 322 321 323 321 317 312 308 297 293 297
188 220 212 241 249 232 255 250 235 228 237 225 223 239 232 210 228 218 230 235 218 191 188 192 198 203 208 233 272 283 282 288 299 311 322 320 321 319 312 308 308 316 303 307